Zurück zum Katalog

ONEWEB-0700

AktivKommunikationPO
NORAD 61606·PAYLOAD·🇬🇧 United Kingdom

Gestartet Oct 20, 2024 von Vandenberg Space Force Base

Loading…

Nächste Überflüge (nächste 24 Stunden)

TLE

AktuellSource: CelesTrak SupGP

Epoche: Sep 14, 2026, 19:23 UTC

1 61606C 24188N   26257.80815232  .00002675  00000+0  76728-2 0  2571
2 61606  87.8927  18.3452 0001343  85.9739  26.5772 13.10373948    16

Verfolge ONEWEB-0700 in Echtzeit mit AllMySat

Download on the App Store